Location: Unspecified
(51.6250°N, 0.8230°E)
Time: 09:33:33
(UTC+01:00)

Okean 3 - Pass Details

Date: 08 August 2020
Orbit: 576 x 601 km, 82.5° (Epoch: 23 September)

Event Time Altitude Azimuth Distance (km) Brightness Sun altitude
Rises 22:06:09 0° 1° (N) 2,847 7.7 -12.5°
Reaches altitude 10° 22:09:02 10° 21° (NNE) 1,945 6.5 -12.8°
Maximum altitude 22:11:54 17° 63° (ENE) 1,528 5.4 -13.1°
Enters shadow 22:14:01 13° 97° (E) 1,766 5.5 -13.3°
